Weather History for KTVC - February, 2013

Change the Weather History Date:

Monday, February 11, 2013

  Actual Average Record
Temperature  
Mean Temperature 37 °F 22 °F  
Max Temperature 44 °F 29 °F 60 °F (1999)
Min Temperature 30 °F 15 °F -32 °F (1899)
Degree Days  
Heating Degree Days 28 43  
Month to date heating degree days 512 480  
Since 1 July heating degree days 4191 4636  
Moisture  
Dew Point 31 °F    
Average Humidity 85    
Maximum Humidity 96    
Minimum Humidity 73    
Precipitation  
Precipitation 0.07 in 0.05 in 0.70 in (1932)
Month to date precipitation 0.50 0.62  
Year to date precipitation 2.72 3.44  
Snow  
Snow 0.00 in - - ()
Snow Depth 9.00 in    
Sea Level Pressure  
Sea Level Pressure 29.50 in    
Wind  
Wind Speed 9 mph (WSW)    
Max Wind Speed 24 mph    
Max Gust Speed 29 mph    
Visibility 6 miles    
Events Rain , Snow    
T = Trace of Precipitation, MM = Missing Value Source: NWS Daily Summary

Daily Weather History Graph

Daily Weather History Graph

Search for Another Location

Airport or City:

Trip Planner

Search our weather history database for the weather conditions in past years. The results will help you decide how hot, cold, wet, or windy it might be!

Date:

Astronomy

Feb. 11, 2013 Rise Set
Actual Time 7:48 AM EST 6:05 PM EST
Civil Twilight 7:17 AM EST 6:35 PM EST
Nautical Twilight 6:43 AM EST 7:10 PM EST
Astronomical Twilight 6:09 AM EST 7:44 PM EST
Moon 8:06 AM EST (2/11) 8:09 PM EST (2/11)
Length of Visible Light 11h 17m
Length of Day
10h 17m
Waxing Crescent, 3% of the Moon is Illuminated
Feb 11
Waxing Crescent
Feb 17
First Quarter
Feb 25
Full
Mar 4
Last Quarter
Mar 11
New

Hourly Weather History & Observations

Time (EST) Temp. Windchill Dew Point Humidity Pressure Visibility Wind Dir Wind Speed Gust Speed Precip Events Conditions
12:53 AM 39.0 °F 34.0 °F 36.0 °F 89% 29.46 in 10.0 mi SSE 6.9 mph - 0.02 in   Overcast
1:53 AM 41.0 °F 38.0 °F 37.9 °F 89% 29.43 in 10.0 mi SSE 4.6 mph - N/A   Overcast
2:25 AM 39.2 °F 35.0 °F 37.4 °F 93% 29.40 in 9.0 mi South 5.8 mph - N/A   Overcast
2:53 AM 41.0 °F 38.0 °F 37.9 °F 89% 29.40 in 8.0 mi SSE 4.6 mph - N/A   Mostly Cloudy
3:06 AM 41.0 °F 39.0 °F 37.4 °F 87% 29.39 in 9.0 mi South 3.5 mph - N/A   Scattered Clouds
3:53 AM 43.0 °F 38.8 °F 37.9 °F 82% 29.38 in 10.0 mi SSW 6.9 mph - N/A   Mostly Cloudy
4:53 AM 43.0 °F 40.3 °F 36.0 °F 76% 29.37 in 10.0 mi SSW 4.6 mph 18.4 mph N/A   Overcast
5:17 AM 42.8 °F 41.1 °F 35.6 °F 76% 29.35 in 10.0 mi Variable 3.5 mph - N/A   Overcast
5:53 AM 41.0 °F 34.7 °F 34.0 °F 76% 29.37 in 10.0 mi SW 10.4 mph 17.3 mph N/A   Overcast
6:53 AM 37.9 °F 32.1 °F 33.1 °F 83% 29.38 in 9.0 mi SSW 8.1 mph - 0.01 in Rain Light Rain
7:53 AM 37.0 °F 31.6 °F 30.9 °F 79% 29.39 in 10.0 mi Variable 6.9 mph 19.6 mph 0.00 in Snow Light Snow
8:53 AM 35.1 °F 26.9 °F 30.9 °F 85% 29.40 in 5.0 mi SW 11.5 mph - 0.00 in Snow Light Snow
9:10 AM 35.6 °F 29.2 °F 30.2 °F 81% 29.38 in 2.5 mi SSW 8.1 mph - 0.00 in Snow Light Snow
9:53 AM 35.1 °F 26.9 °F 30.9 °F 85% 29.38 in 3.0 mi SW 11.5 mph - N/A Snow Light Snow
10:53 AM 33.8 °F 23.2 °F 32.0 °F 93% 29.39 in 5.0 mi SW 17.3 mph 24.2 mph N/A Snow Light Snow
11:29 AM 33.8 °F 23.5 °F 30.2 °F 87% 29.39 in 0.6 mi SW 16.1 mph 25.3 mph N/A Snow Light Snow
11:53 AM 33.8 °F 23.9 °F 32.0 °F 93% 29.39 in 1.5 mi SW 15.0 mph 20.7 mph N/A Snow Light Snow
12:25 PM 33.8 °F 23.9 °F 32.0 °F 93% 29.39 in 3.0 mi SW 15.0 mph 25.3 mph N/A Snow Light Snow
12:53 PM 33.8 °F 24.3 °F 32.0 °F 93% 29.38 in 3.0 mi SW 13.8 mph 24.2 mph N/A Snow Light Snow
1:53 PM 35.1 °F 28.6 °F 32.0 °F 89% 29.41 in 3.0 mi SW 8.1 mph - 0.02 in Snow Light Snow
2:39 PM 35.6 °F 28.6 °F 32.0 °F 87% 29.40 in 4.0 mi WSW 9.2 mph - 0.01 in Rain , Snow Light Rain
2:50 PM 35.6 °F 28.0 °F 33.8 °F 93% 29.41 in 5.0 mi WSW 10.4 mph 16.1 mph 0.02 in Rain Light Rain
2:53 PM 36.0 °F 29.0 °F 33.1 °F 89% 29.43 in 5.0 mi WSW 9.2 mph - 0.02 in Rain Light Rain
3:36 PM 35.6 °F 26.2 °F 32.0 °F 87% 29.45 in 7.0 mi West 15.0 mph 25.3 mph 0.00 in Rain Light Rain
3:50 PM 35.6 °F 25.2 °F 32.0 °F 87% 29.47 in 5.0 mi West 18.4 mph 23.0 mph 0.01 in Rain , Snow Light Rain
3:53 PM 36.0 °F 26.3 °F 32.0 °F 86% 29.49 in 5.0 mi West 16.1 mph 23.0 mph 0.01 in Rain , Snow Light Rain
4:26 PM 35.6 °F 25.2 °F 30.2 °F 81% 29.51 in 2.5 mi West 18.4 mph - 0.01 in Snow Light Snow
4:53 PM 35.1 °F 26.4 °F 30.9 °F 85% 29.55 in 2.5 mi West 12.7 mph 21.9 mph 0.02 in Snow Light Snow
5:53 PM 35.1 °F 25.5 °F 28.9 °F 78% 29.60 in 5.0 mi West 15.0 mph 25.3 mph 0.00 in Snow Light Snow
6:08 PM 35.6 °F 25.2 °F 28.4 °F 75% 29.61 in 5.0 mi West 18.4 mph - 0.00 in Snow Light Snow
6:25 PM 33.8 °F 22.5 °F 28.4 °F 81% 29.62 in 2.0 mi West 19.6 mph 25.3 mph 0.00 in Snow Light Snow
6:30 PM 33.8 °F 22.8 °F 28.4 °F 81% 29.63 in 1.2 mi West 18.4 mph - 0.00 in Snow Light Snow
6:48 PM 33.8 °F 23.9 °F 28.4 °F 81% 29.64 in 3.0 mi West 15.0 mph 24.2 mph 0.00 in Snow Light Snow
6:53 PM 34.0 °F 23.4 °F 28.0 °F 79% 29.66 in 3.0 mi WNW 17.3 mph - 0.00 in Snow Light Snow
7:35 PM 33.8 °F 24.8 °F 26.6 °F 75% 29.66 in 7.0 mi WNW 12.7 mph 23.0 mph 0.00 in Snow Light Snow
7:53 PM 34.0 °F 23.4 °F 27.0 °F 75% 29.69 in 7.0 mi WNW 17.3 mph 21.9 mph 0.00 in Snow Light Snow
8:13 PM 33.8 °F 23.9 °F 26.6 °F 75% 29.68 in 7.0 mi WNW 15.0 mph - 0.00 in Snow Light Snow
8:53 PM 33.1 °F 23.9 °F 26.1 °F 75% 29.73 in 8.0 mi NW 12.7 mph 21.9 mph 0.00 in Snow Light Snow
9:53 PM 30.9 °F 20.7 °F 24.1 °F 76% 29.76 in 8.0 mi WNW 13.8 mph - 0.00 in Snow Light Snow
10:53 PM 30.9 °F 21.7 °F 23.0 °F 72% 29.78 in 10.0 mi WNW 11.5 mph - 0.00 in   Overcast
11:16 PM 30.2 °F 17.8 °F 19.4 °F 64% 29.76 in 10.0 mi WNW 19.6 mph 26.5 mph N/A   Overcast
11:53 PM 30.0 °F 18.7 °F 19.9 °F 66% 29.80 in 10.0 mi WNW 16.1 mph - N/A   Overcast